Weather Roundup
Issued by NWS

Home | Current Version | Previous Version | Graphics & Text | Print | Product List | Glossary Off
Versions: 1 2 3 4 5 6 7 8 9 10 11 12 13 14 15 16 17 18 19 20 21 22 23 24 25 26 27 28 29 30 31 32 33 34 35 36 37 38 39 40 41 42 43 44 45 46 47 48 49 50

000
NZUS93 KARX 230859
HRRWXR

CURRENT HOURLY OBSERVATIONS ACROSS
MUCH OF THE UPPER MISSISSIPPI VALLEY
NATIONAL WEATHER SERVICE LA CROSSE WI
400 AM CDT THU OCT 23 2014


...SOUTHEAST MINNESOTA...


CITY           SKY/WX    TMP DP  RH WIND       PRES   REMARKS
ROCHESTER      CLOUDY    50  42  74 S13G21    30.05F
ROCHESTER/MAYO CLOUDY    51  40  66 SE10      30.04F
WINONA         LGT RAIN  50  43  76 S5        30.07F
AUSTIN         CLOUDY    52  43  71 S10       30.04F
ALBERT LEA     LGT RAIN  52  46  82 S8        30.02F
DODGE CENTER   CLOUDY    52  43  71 S15       30.02F
PRESTON        LGT RAIN  47  43  87 S12G17    30.07F
OWATONNA       RAIN      50  46  87 S13G20    30.01F
FARIBAULT      DRIZZLE   50  48  93 S6        30.01F
$$

...ELSEWHERE IN MINNESOTA...


CITY           SKY/WX    TMP DP  RH WIND       PRES   REMARKS
MINNEAPOLIS    CLOUDY    50  49  96 SE7       30.00F
INTNL FALLS    CLOUDY    48  46  93 VRB6      29.88F
DULUTH         LGT RAIN  51  39  63 S8        29.96F
RED WING       NOT AVBL
REDWOOD FALLS  PTCLDY    51  50  96 SW5       29.98F
MANKATO        CLOUDY    54  46  76 S8        30.00S
WORTHINGTON    CLOUDY    52  50  93 W7        30.02F VSB 3/4
FAIRMONT       CLOUDY    54  48  82 S9        30.00F
$$

...SOUTHWEST WISCONSIN...


CITY           SKY/WX    TMP DP  RH WIND       PRES   REMARKS
LA CROSSE      CLOUDY    51  44  77 SE6       30.09F
PRAIRIE DU CHI CLOUDY    49  38  66 E6        30.13F
BOSCOBEL       CLOUDY    46  39  76 CALM      30.15F
LONE ROCK      NOT AVBL
PLATTEVILLE    PTCLDY    41  36  80 CALM      30.16S
FORT MC COY    CLOUDY    51  36  55 S8        30.12F
VIROQUA        CLOUDY    48  38  68 S10       30.11F
WIS DELLS      CLOUDY    43  35  74 S3        30.15F
$$

...ELSEWHERE IN WISCONSIN...


CITY           SKY/WX    TMP DP  RH WIND       PRES   REMARKS
MILWAUKEE      PTCLDY    35  31  85 CALM      30.21F
MADISON        CLEAR     39  34  82 S7        30.19S WCI  34
GREEN BAY      CLEAR     38  36  92 S5        30.20F WCI  34
EAU CLAIRE     NOT AVBL
BLACK RVR FLS  CLOUDY    47  47 100 CALM      30.11S
MEDFORD        DRIZZLE   42  37  80 S7        30.10F
WAUSAU         CLOUDY    41  37  86 SE5       30.12F
WIS RAPIDS     MOCLDY    40  37  89 SE5       30.15F
MARSHFIELD     LGT RAIN  43  38  82 S8        30.11F
RICE LAKE      CLOUDY    48  42  77 SE9       30.05F
$$

...NORTHEAST IOWA...


CITY           SKY/WX    TMP DP  RH WIND       PRES   REMARKS
DECORAH        CLOUDY    50  41  71 S9        30.09F
MASON CITY     CLOUDY    50  46  86 S10       30.05F
CHARLES CITY   CLOUDY    48  45  87 SE8       30.07F
OELWEIN        CLOUDY    50  41  71 S13       30.11F
$$

...ELSEWHERE IN IOWA...


CITY           SKY/WX    TMP DP  RH WIND       PRES   REMARKS
DES MOINES     CLOUDY    53  49  86 S8        30.07F
IOWA CITY      PTCLDY    43  39  86 SE5       30.15F
FORT DODGE     CLOUDY    54  50  87 S10       30.02F
$$

...NORTHERN ILLINOIS...


CITY           SKY/WX    TMP DP  RH WIND       PRES   REMARKS
CHICAGO-OHARE  CLEAR     37  35  92 S6        30.22F WCI  32
CHICAGO-MIDWAY CLEAR     43  38  82 S7        30.23F
MOLINE         PTCLDY    41  35  79 SE3       30.16F
ROCKFORD       CLEAR     38  34  85 S6        30.22S WCI  33
PEORIA         CLEAR     44  36  73 SE7       30.20F
$$

NOTE: "FAIR" INDICATES FEW OR NO CLOUDS BELOW 12,000 FEET WITH NO
SIGNIFICANT WEATHER AND/OR OBSTRUCTIONS TO VISIBILITY. WIND
SPEEDS ARE IN MILES-PER-HOUR.



USA.gov is the U.S. government's official web portal to all federal, state and local government web resources and services.